FLI435 ENGM-EKVG

Flight info

Callsign FLI435
Flight time N/A
Altitude 34000
Route ENGM/01R ATLAP DCT ERSER/M075F340 DCT ROBUR
Aircraft A320/M-SDE3FGHIRWY/LB1

Departure

Time N/A
Airport Oslo-Gardermoen International Airport (ENGM)

Arrival

Time 2026-04-28 19:22
Airport Vágar Airport (EKVG)
Time Latitude Longitude Altitude Speed Heading
2026-04-28 18:24 60.96913 4.58845 34487 ft 407 kts 293°
2026-04-28 18:24 60.97672 4.53210 34493 ft 407 kts 293°
2026-04-28 18:25 60.99177 4.41964 34501 ft 407 kts 292°
2026-04-28 18:26 61.01415 4.25061 34505 ft 407 kts 292°
2026-04-28 18:26 61.02885 4.13879 34470 ft 407 kts 292°
2026-04-28 18:27 61.04359 4.02594 34485 ft 407 kts 292°
2026-04-28 18:27 61.05822 3.91314 34501 ft 407 kts 291°
2026-04-28 18:28 61.07276 3.80015 34503 ft 407 kts 291°
2026-04-28 18:28 61.08718 3.68690 34507 ft 407 kts 291°
2026-04-28 18:29 61.10150 3.57367 34502 ft 407 kts 291°
2026-04-28 18:29 61.11573 3.46034 34470 ft 407 kts 291°
2026-04-28 18:30 61.12988 3.34702 34479 ft 407 kts 290°
2026-04-28 18:30 61.14395 3.23364 34485 ft 407 kts 290°
2026-04-28 18:31 61.15790 3.12026 34484 ft 407 kts 290°
2026-04-28 18:31 61.17172 3.00645 34485 ft 407 kts 290°
2026-04-28 18:32 61.18545 2.89280 34487 ft 407 kts 290°
2026-04-28 18:32 61.19911 2.77973 34466 ft 407 kts 290°
2026-04-28 18:33 61.21271 2.66579 34462 ft 407 kts 289°
2026-04-28 18:33 61.22616 2.55169 34469 ft 407 kts 289°
2026-04-28 18:34 61.23951 2.43752 34472 ft 407 kts 289°
2026-04-28 18:34 61.25282 2.32295 34477 ft 408 kts 289°
2026-04-28 18:35 61.26609 2.20847 34485 ft 408 kts 289°
2026-04-28 18:35 61.27926 2.09374 34484 ft 408 kts 289°
2026-04-28 18:36 61.29233 1.97894 34459 ft 408 kts 288°
2026-04-28 18:36 61.30526 1.86382 34480 ft 409 kts 288°
2026-04-28 18:37 61.31813 1.74821 34485 ft 410 kts 288°
2026-04-28 18:37 61.33093 1.63248 34483 ft 410 kts 288°
2026-04-28 18:38 61.34361 1.51684 34483 ft 410 kts 287°
2026-04-28 18:38 61.35625 1.40077 34491 ft 410 kts 287°
2026-04-28 18:39 61.36868 1.28563 34488 ft 409 kts 287°
2026-04-28 18:39 61.38105 1.16989 34494 ft 408 kts 287°
2026-04-28 18:40 61.39333 1.05424 34492 ft 408 kts 287°
2026-04-28 18:40 61.40540 0.93844 34490 ft 408 kts 286°
2026-04-28 18:41 61.41737 0.82296 34485 ft 407 kts 286°
2026-04-28 18:41 61.42939 0.70720 34483 ft 407 kts 286°
2026-04-28 18:42 61.44131 0.59163 34479 ft 407 kts 285°
2026-04-28 18:42 61.45303 0.47570 34484 ft 407 kts 285°
2026-04-28 18:43 61.46459 0.36006 34487 ft 406 kts 285°
2026-04-28 18:43 61.47610 0.24437 34484 ft 406 kts 285°
2026-04-28 18:44 61.48749 0.12869 34482 ft 406 kts 285°
2026-04-28 18:44 61.50411 -0.04485 34448 ft 406 kts 282°
2026-04-28 18:45 61.51393 -0.16150 34450 ft 406 kts 281°
2026-04-28 18:45 61.52319 -0.27826 34453 ft 407 kts 281°
2026-04-28 18:46 61.53254 -0.39534 34454 ft 407 kts 281°
2026-04-28 18:46 61.54183 -0.51155 34459 ft 407 kts 281°
2026-04-28 18:47 61.55113 -0.62883 34459 ft 407 kts 281°
2026-04-28 18:47 61.56038 -0.74632 34460 ft 408 kts 281°
2026-04-28 18:48 61.56948 -0.86364 34457 ft 408 kts 281°
2026-04-28 18:48 61.57851 -0.98133 34455 ft 408 kts 281°
2026-04-28 18:49 61.58441 -1.05918 34456 ft 408 kts 281°
2026-04-28 18:49 61.59620 -1.21678 34456 ft 408 kts 281°
2026-04-28 18:50 61.60493 -1.33445 34459 ft 408 kts 281°
2026-04-28 18:50 61.61352 -1.45253 34444 ft 409 kts 280°
2026-04-28 18:51 61.62204 -1.57064 34447 ft 409 kts 280°
2026-04-28 18:51 61.63047 -1.68914 34450 ft 410 kts 280°
2026-04-28 18:52 61.63876 -1.80761 34452 ft 410 kts 279°
2026-04-28 18:52 61.64704 -1.92626 34455 ft 410 kts 279°
2026-04-28 18:53 61.65514 -2.04486 34451 ft 410 kts 279°
2026-04-28 18:53 61.66302 -2.16284 34445 ft 409 kts 279°
2026-04-28 18:54 61.67099 -2.28224 34443 ft 409 kts 279°
2026-04-28 18:54 61.67882 -2.40081 34441 ft 409 kts 278°
2026-04-28 18:55 61.68527 -2.49955 34442 ft 409 kts 278°
2026-04-28 18:55 61.69414 -2.63754 34440 ft 409 kts 278°
2026-04-28 18:56 61.70156 -2.75626 34440 ft 409 kts 278°
2026-04-28 18:56 61.70892 -2.87518 34430 ft 409 kts 278°
2026-04-28 18:57 61.71622 -2.99407 34435 ft 409 kts 277°
2026-04-28 18:57 61.72339 -3.11298 34438 ft 409 kts 277°
2026-04-28 18:58 61.73045 -3.23195 34439 ft 408 kts 277°
2026-04-28 18:58 61.73755 -3.35175 34167 ft 417 kts 277°
2026-04-28 18:59 61.74109 -3.41284 33886 ft 420 kts 277°
2026-04-28 18:59 61.74457 -3.47418 33616 ft 422 kts 277°
2026-04-28 18:59 61.74805 -3.53567 33348 ft 423 kts 277°
2026-04-28 18:59 61.75155 -3.59749 33077 ft 424 kts 277°
2026-04-28 19:00 61.75501 -3.65929 32660 ft 424 kts 277°
2026-04-28 19:00 61.75839 -3.72065 32076 ft 419 kts 277°
2026-04-28 19:00 61.76171 -3.78086 31527 ft 415 kts 277°
2026-04-28 19:00 61.76502 -3.84117 30967 ft 412 kts 277°
2026-04-28 19:01 61.76828 -3.90104 30398 ft 409 kts 277°
2026-04-28 19:01 61.77149 -3.96060 29798 ft 405 kts 277°
2026-04-28 19:01 61.77462 -4.01931 29272 ft 401 kts 277°
2026-04-28 19:01 61.77768 -4.07748 28729 ft 396 kts 277°
2026-04-28 19:02 61.78073 -4.13510 28219 ft 392 kts 277°
2026-04-28 19:02 61.78372 -4.19193 27702 ft 388 kts 277°
2026-04-28 19:02 61.78665 -4.24849 27185 ft 385 kts 277°
2026-04-28 19:02 61.78854 -4.28557 26842 ft 382 kts 276°
2026-04-28 19:03 61.79232 -4.35988 26177 ft 378 kts 276°
2026-04-28 19:03 61.79420 -4.39706 25853 ft 376 kts 276°
2026-04-28 19:03 61.79691 -4.45114 25391 ft 373 kts 276°
2026-04-28 19:03 61.79960 -4.50541 24922 ft 370 kts 276°
2026-04-28 19:04 61.80227 -4.55948 24471 ft 367 kts 276°
2026-04-28 19:04 61.80488 -4.61295 24023 ft 364 kts 276°
2026-04-28 19:04 61.80745 -4.66606 23548 ft 361 kts 275°
2026-04-28 19:04 61.80995 -4.71835 23125 ft 356 kts 275°
2026-04-28 19:05 61.81242 -4.77006 22712 ft 351 kts 275°
2026-04-28 19:05 61.81481 -4.82107 22303 ft 346 kts 275°
2026-04-28 19:05 61.81716 -4.87141 21900 ft 342 kts 275°
2026-04-28 19:05 61.81951 -4.92124 21489 ft 338 kts 275°
2026-04-28 19:06 61.82182 -4.97054 21085 ft 334 kts 275°
2026-04-28 19:06 61.82408 -5.01918 20682 ft 331 kts 274°
2026-04-28 19:06 61.82629 -5.06759 20271 ft 329 kts 274°
2026-04-28 19:06 61.82846 -5.11491 19859 ft 326 kts 274°
2026-04-28 19:07 61.83065 -5.16324 19422 ft 324 kts 274°
2026-04-28 19:07 61.83272 -5.20992 19013 ft 322 kts 273°
2026-04-28 19:07 61.83479 -5.25709 18584 ft 321 kts 273°
2026-04-28 19:07 61.83681 -5.30392 18141 ft 318 kts 273°
2026-04-28 19:08 61.83883 -5.35041 17733 ft 315 kts 273°
2026-04-28 19:08 61.84079 -5.39656 17326 ft 313 kts 273°
2026-04-28 19:08 61.84272 -5.44212 16922 ft 310 kts 273°
2026-04-28 19:08 61.84464 -5.48754 16520 ft 308 kts 273°
2026-04-28 19:09 61.84653 -5.53257 16136 ft 306 kts 273°
2026-04-28 19:09 61.84837 -5.57739 15744 ft 304 kts 273°
2026-04-28 19:09 61.85021 -5.62194 15356 ft 303 kts 273°
2026-04-28 19:09 61.85205 -5.66626 14970 ft 302 kts 273°
2026-04-28 19:10 61.85388 -5.71054 14576 ft 300 kts 273°
2026-04-28 19:10 61.85566 -5.75389 14191 ft 300 kts 272°
2026-04-28 19:10 61.85741 -5.79789 13768 ft 298 kts 272°
2026-04-28 19:10 61.85912 -5.84144 13365 ft 296 kts 272°
2026-04-28 19:11 61.86083 -5.88470 12971 ft 294 kts 272°
2026-04-28 19:11 61.86256 -5.92825 12568 ft 292 kts 272°
2026-04-28 19:11 61.86421 -5.97055 12175 ft 290 kts 271°
2026-04-28 19:11 61.86583 -6.01307 11775 ft 289 kts 271°
2026-04-28 19:12 61.86741 -6.05535 11375 ft 287 kts 271°
2026-04-28 19:12 61.86900 -6.09739 10976 ft 286 kts 271°
2026-04-28 19:12 61.87058 -6.13902 10742 ft 278 kts 271°
2026-04-28 19:12 61.87212 -6.17929 10538 ft 271 kts 271°
2026-04-28 19:13 61.87360 -6.21861 10329 ft 267 kts 271°
2026-04-28 19:13 61.87501 -6.25766 10200 ft 265 kts 271°
2026-04-28 19:13 61.87640 -6.29668 10067 ft 265 kts 271°
2026-04-28 19:13 61.87781 -6.33590 9599 ft 268 kts 271°
2026-04-28 19:14 61.87921 -6.37514 9205 ft 265 kts 271°
2026-04-28 19:14 61.88059 -6.41428 8789 ft 265 kts 271°
2026-04-28 19:14 61.88196 -6.45302 8429 ft 262 kts 271°
2026-04-28 19:14 61.88329 -6.49125 8054 ft 260 kts 270°
2026-04-28 19:15 61.88461 -6.52938 7663 ft 258 kts 270°
2026-04-28 19:15 61.88666 -6.56710 7273 ft 259 kts 279°
2026-04-28 19:15 61.89300 -6.60310 6873 ft 263 kts 293°
2026-04-28 19:15 61.89887 -6.62571 6593 ft 263 kts 293°
2026-04-28 19:16 61.91060 -6.67098 6045 ft 261 kts 293°
2026-04-28 19:16 61.91938 -6.70523 5361 ft 269 kts 293°
2026-04-28 19:16 61.92826 -6.73988 5071 ft 262 kts 293°
2026-04-28 19:16 61.93671 -6.77288 4810 ft 254 kts 293°
2026-04-28 19:17 61.94498 -6.80523 4553 ft 245 kts 293°
2026-04-28 19:17 61.95300 -6.83664 4295 ft 238 kts 293°
2026-04-28 19:17 61.96074 -6.86714 4078 ft 229 kts 293°
2026-04-28 19:17 61.96805 -6.89598 4006 ft 214 kts 292°
2026-04-28 19:18 61.97483 -6.92273 4007 ft 198 kts 292°
2026-04-28 19:18 61.98108 -6.94747 3985 ft 184 kts 291°
2026-04-28 19:18 61.98697 -6.97088 3841 ft 176 kts 291°
2026-04-28 19:18 61.99270 -6.99366 3567 ft 173 kts 291°
2026-04-28 19:19 61.99836 -7.01620 3291 ft 174 kts 291°
2026-04-28 19:19 62.00402 -7.03872 3014 ft 171 kts 291°
2026-04-28 19:19 62.00957 -7.06081 2756 ft 167 kts 291°
2026-04-28 19:19 62.01490 -7.08197 2486 ft 156 kts 290°
2026-04-28 19:20 62.01980 -7.10144 2264 ft 141 kts 290°
2026-04-28 19:20 62.02430 -7.11939 2041 ft 134 kts 289°
2026-04-28 19:20 62.02861 -7.13668 1822 ft 131 kts 288°
2026-04-28 19:20 62.03291 -7.15391 1603 ft 131 kts 288°
2026-04-28 19:21 62.03715 -7.17091 1385 ft 131 kts 288°
2026-04-28 19:21 62.04150 -7.18837 1205 ft 132 kts 288°
2026-04-28 19:21 62.04584 -7.20576 962 ft 136 kts 289°
2026-04-28 19:21 62.05034 -7.22384 750 ft 139 kts 294°
2026-04-28 19:22 62.05491 -7.24218 514 ft 140 kts 294°
2026-04-28 19:22 62.05791 -7.25431 349 ft 140 kts 292°
2026-04-28 19:22 62.06325 -7.27603 286 ft 81 kts 298°
2026-04-28 19:22 62.06462 -7.28125 280 ft 13 kts 308°
2026-04-28 19:23 62.06537 -7.28114 279 ft 12 kts 21°
2026-04-28 19:23 62.06607 -7.28087 278 ft 5 kts
2026-04-28 19:23 62.06612 -7.28087 279 ft 0 kts
2026-04-28 19:23 62.06616 -7.28086 279 ft 3 kts
2026-04-28 19:24 62.06651 -7.28051 280 ft 6 kts 66°
2026-04-28 19:24 62.06664 -7.27974 282 ft 5 kts 50°
2026-04-28 19:24 62.06682 -7.27950 279 ft 2 kts 28°
2026-04-28 19:24 62.06687 -7.27944 279 ft 1 kts 29°
2026-04-28 19:25 62.06690 -7.27941 279 ft 0 kts 29°